Location: Härggis
(46.9540°N, 8.4897°E)
Time: 22:18:07
(UTC+00:00)

ATLAS CENTAUR R/B - Pass Details

Date: 27 May 2022
Orbit: 443 x 688 km, 64.6° (Epoch: 07 June)

Event Time Altitude Azimuth Distance (km) Brightness Sun altitude
Rises 00:08:50 0° 308° (NW) 3,043 5.5 -21.0°
Reaches altitude 10° 00:12:10 10° 285° (WNW) 2,094 4.3 -20.9°
Enters shadow 00:13:51 14° 264° (W) 1,824 3.8 -20.8°
